Scottsbluff, NE

6:49 PM MST on December 17, 2017 (GMT -0700)
Heilig

Weather History for KBFF - February, 2014

Change the Weather History Date:

Wednesday, February 19, 2014

  Actual Average Record
Temperature  
Mean Temperature 47 °F 31 °F  
Max Temperature 61 °F 45 °F 74 °F (1981)
Min Temperature 32 °F 17 °F -14 °F (1929)
Degree Days  
Heating Degree Days 18 34  
Month to date heating degree days 828 677  
Since 1 July heating degree days 4627 4619  
Cooling Degree Days 0 0  
Month to date cooling degree days 0 0  
Year to date cooling degree days 0 0  
Moisture  
Dew Point 24 °F    
Average Humidity 50    
Maximum Humidity 78    
Minimum Humidity 21    
Precipitation  
Precipitation T in 0.02 in 0.40 in (1912)
Month to date precipitation 0.74 0.37  
Year to date precipitation 1.20 0.78  
Snow  
Snow T in 0.20 in 5.50 in (1953)
Month to date snowfall 12.9 4.6  
Since 1 July snowfall 43.1 26.0  
Snow Depth 0.00 in    
Sea Level Pressure  
Sea Level Pressure 29.67 in    
Wind  
Wind Speed 8 mph (West)    
Max Wind Speed 25 mph    
Max Gust Speed 38 mph    
Visibility 10 miles    
Events Rain    
T = Trace of Precipitation, MM = Missing Value Source: NWS Daily Summary

Daily Weather History Graph

Daily Weather History Graph

Search for Another Location

Airport or City:

Trip Planner

Search our weather history database for the weather conditions in past years. The results will help you decide how hot, cold, wet, or windy it might be!

Date:

Astronomy

Feb. 19, 2014 Rise Set
Actual Time 6:44 AM MST 5:32 PM MST
Civil Twilight 6:16 AM MST 6:01 PM MST
Nautical Twilight 5:43 AM MST 6:33 PM MST
Astronomical Twilight 5:11 AM MST 7:05 PM MST
Moon 10:33 PM MST (2/19) 8:46 AM MST (2/19)
Length of Visible Light 11h 44m
Length of Day
10h 48m
Waning Gibbous, 79% of the Moon is Illuminated
Feb 19
Waning Gibbous
Feb 22
Last Quarter
Mar 1
New
Mar 8
First Quarter
Mar 16
Full

Hourly Weather History & Observations

Time (MST) Temp. Windchill Dew Point Humidity Pressure Visibility Wind Dir Wind Speed Gust Speed Precip Events Conditions
12:53 AM 30.0 °F - 23.0 °F 75% 29.91 in 10.0 mi Calm Calm - N/A   Clear
1:53 AM 30.0 °F 25.2 °F 24.1 °F 79% 29.87 in 10.0 mi NE 4.6 mph - N/A   Clear
2:53 AM 34.0 °F - 24.1 °F 67% 29.82 in 10.0 mi Calm Calm - N/A   Clear
3:53 AM 35.1 °F 28.6 °F 25.0 °F 67% 29.78 in 10.0 mi SSW 8.1 mph - N/A   Clear
4:53 AM 36.0 °F 29.6 °F 24.1 °F 62% 29.76 in 10.0 mi SW 8.1 mph - N/A   Clear
5:53 AM 36.0 °F 28.5 °F 24.1 °F 62% 29.75 in 10.0 mi SSW 10.4 mph - N/A   Clear
6:53 AM 37.0 °F 30.4 °F 24.1 °F 59% 29.74 in 10.0 mi South 9.2 mph - N/A   Clear
7:53 AM 37.9 °F 32.7 °F 26.1 °F 62% 29.71 in 10.0 mi SSE 6.9 mph - N/A   Clear
8:53 AM 43.0 °F 41.3 °F 26.1 °F 51% 29.69 in 10.0 mi SE 3.5 mph - N/A   Clear
9:53 AM 46.9 °F - 26.1 °F 44% 29.66 in 10.0 mi SSE 8.1 mph - N/A   Clear
10:53 AM 51.1 °F - 26.1 °F 38% 29.62 in 10.0 mi SSE 6.9 mph - N/A   Clear
12:53 PM 59.0 °F - 19.0 °F 21% 29.50 in 10.0 mi West 15.0 mph 25.3 mph N/A   Unknown
1:53 PM 57.9 °F - 21.9 °F 25% 29.48 in 10.0 mi WNW 6.9 mph - N/A   Overcast
2:53 PM 59.0 °F - 21.9 °F 24% 29.46 in 10.0 mi WSW 5.8 mph - N/A   Overcast
3:53 PM 55.0 °F - 24.1 °F 30% 29.45 in 10.0 mi WNW 6.9 mph - N/A   Overcast
4:53 PM 48.0 °F - 28.0 °F 46% 29.50 in 10.0 mi North 32.2 mph 42.6 mph 0.00 in Rain Light Rain
5:00 PM 45.0 °F 35.2 °F 30.0 °F 56% 29.50 in 10.0 mi North 29.9 mph 40.3 mph 0.00 in Rain Light Rain
5:53 PM 42.1 °F 33.1 °F 30.9 °F 65% 29.56 in 10.0 mi North 20.7 mph 29.9 mph 0.00 in   Overcast
6:53 PM 35.1 °F 22.7 °F 23.0 °F 61% 29.64 in 10.0 mi North 25.3 mph 32.2 mph N/A   Overcast
7:53 PM 35.1 °F 24.5 °F 19.0 °F 52% 29.67 in 10.0 mi NNW 18.4 mph 29.9 mph N/A   Overcast
8:53 PM 35.1 °F 31.0 °F 18.0 °F 50% 29.72 in 10.0 mi NNW 4.6 mph - N/A   Overcast
9:53 PM 34.0 °F 26.6 °F 19.9 °F 56% 29.71 in 10.0 mi WNW 9.2 mph - N/A   Overcast
10:53 PM 32.0 °F 23.0 °F 21.9 °F 66% 29.72 in 10.0 mi WNW 11.5 mph - N/A   Mostly Cloudy
11:53 PM 32.0 °F 24.2 °F 21.9 °F 66% 29.73 in 10.0 mi WNW 9.2 mph - N/A   Clear